Houston, TX

7:40 PM CST on December 07, 2016 (GMT -0600)
Hobby

Weather History for KHOU - October, 2012

Change the Weather History Date:

Thursday, October 25, 2012

  Actual Average Record
Temperature  
Mean Temperature 79 °F 69 °F  
Max Temperature 88 °F 80 °F 91 °F (1950)
Min Temperature 70 °F 59 °F 39 °F (1980)
Degree Days  
Heating Degree Days 0 2  
Month to date heating degree days 6 15  
Since 1 July heating degree days 6 16  
Cooling Degree Days 14 6  
Month to date cooling degree days 227 198  
Year to date cooling degree days 3426 3023  
Growing Degree Days 30 (Base 50)    
Moisture  
Dew Point 70 °F    
Average Humidity 72    
Maximum Humidity 93    
Minimum Humidity 51    
Precipitation  
Precipitation 0.00 in 0.20 in 9.25 in (1984)
Month to date precipitation 0.95 4.63  
Year to date precipitation 38.77 40.62  
Sea Level Pressure  
Sea Level Pressure 29.90 in    
Wind  
Wind Speed 6 mph (SSE)    
Max Wind Speed 16 mph    
Max Gust Speed 21 mph    
Visibility 10 miles    
Events      
T = Trace of Precipitation, MM = Missing Value Source: NWS Daily Summary

Daily Weather History Graph

Daily Weather History Graph

Search for Another Location

Airport or City:

Trip Planner

Search our weather history database for the weather conditions in past years. The results will help you decide how hot, cold, wet, or windy it might be!

Date:

Astronomy

Oct. 25, 2012 Rise Set
Actual Time 7:29 AM CDT 6:40 PM CDT
Civil Twilight 7:05 AM CDT 7:04 PM CDT
Nautical Twilight 6:37 AM CDT 7:32 PM CDT
Astronomical Twilight 6:09 AM CDT 8:00 PM CDT
Moon 4:13 PM CDT (10/25) 3:43 AM CDT (10/25)
Length of Visible Light 11h 58m
Length of Day
11h 10m
Waxing Gibbous, 84% of the Moon is Illuminated
Oct 25
Waxing Gibbous
Oct 29
Full
Nov 6
Last Quarter
Nov 13
New
Nov 20
First Quarter

Hourly Weather History & Observations

Time (CDT) Temp. Heat Index Dew Point Humidity Pressure Visibility Wind Dir Wind Speed Gust Speed Precip Events Conditions
12:20 AM 73.4 °F - 71.6 °F 94% 29.90 in 10.0 mi SE 4.6 mph - N/A   Mostly Cloudy
12:53 AM 73.9 °F - 70.0 °F 87% 29.91 in 10.0 mi ESE 3.5 mph - N/A   Scattered Clouds
1:53 AM 73.9 °F - 71.1 °F 91% 29.91 in 10.0 mi ESE 4.6 mph - N/A   Overcast
2:53 AM 73.9 °F - 70.0 °F 87% 29.89 in 10.0 mi SE 5.8 mph - N/A   Mostly Cloudy
3:53 AM 73.9 °F - 70.0 °F 87% 29.88 in 10.0 mi SE 4.6 mph - N/A   Overcast
4:53 AM 73.9 °F - 70.0 °F 87% 29.87 in 10.0 mi SSE 6.9 mph - N/A   Mostly Cloudy
5:39 AM 73.4 °F - 69.8 °F 88% 29.85 in 10.0 mi SSE 8.1 mph - N/A   Mostly Cloudy
5:53 AM 73.9 °F - 70.0 °F 87% 29.87 in 10.0 mi SSE 6.9 mph - N/A   Scattered Clouds
6:53 AM 73.0 °F - 70.0 °F 90% 29.88 in 10.0 mi SSE 4.6 mph - N/A   Scattered Clouds
7:53 AM 73.0 °F - 70.0 °F 90% 29.90 in 10.0 mi Calm Calm - N/A   Scattered Clouds
8:53 AM 75.0 °F - 71.1 °F 87% 29.93 in 10.0 mi Calm Calm - N/A   Mostly Cloudy
9:53 AM 78.1 °F - 71.1 °F 79% 29.93 in 8.0 mi South 5.8 mph - N/A   Mostly Cloudy
10:53 AM 82.0 °F 85.9 °F 70.0 °F 67% 29.93 in 10.0 mi South 12.7 mph 19.6 mph N/A   Scattered Clouds
11:53 AM 82.4 °F 86.3 °F 69.8 °F 66% 29.91 in 10.0 mi South 8.1 mph - N/A   Scattered Clouds
12:53 PM 84.0 °F 87.0 °F 68.0 °F 58% 29.91 in 10.0 mi South 10.4 mph - N/A   Scattered Clouds
1:53 PM 84.9 °F 88.2 °F 68.0 °F 57% 29.88 in 10.0 mi SSW 10.4 mph - N/A   Scattered Clouds
2:53 PM 87.1 °F 90.6 °F 68.0 °F 53% 29.86 in 10.0 mi SSW 9.2 mph - N/A   Scattered Clouds
3:53 PM 86.0 °F 90.1 °F 69.1 °F 57% 29.86 in 10.0 mi SSE 9.2 mph - N/A   Mostly Cloudy
4:53 PM 84.9 °F 88.8 °F 69.1 °F 59% 29.86 in 10.0 mi Variable 6.9 mph - N/A   Scattered Clouds
5:53 PM 82.9 °F 85.8 °F 68.0 °F 60% 29.86 in 10.0 mi SSE 9.2 mph - N/A   Partly Cloudy
6:53 PM 79.0 °F - 68.0 °F 69% 29.88 in 10.0 mi SSE 9.2 mph - N/A   Partly Cloudy
8:53 PM 73.9 °F - 70.0 °F 87% 29.91 in 10.0 mi SSE 8.1 mph - N/A   Partly Cloudy
9:53 PM 73.9 °F - 70.0 °F 87% 29.93 in 10.0 mi Calm Calm - N/A   Scattered Clouds
10:53 PM 73.0 °F - 70.0 °F 90% 29.94 in 10.0 mi Calm Calm - N/A   Scattered Clouds
11:53 PM 71.1 °F - 70.0 °F 96% 29.94 in 10.0 mi SSE 3.5 mph - N/A   Scattered Clouds